Gulkana, AK

6:37 AM AKDT on April 23, 2017 (GMT -0800)
Gulkana

Weather History for PAGK - May, 2014

Change the Weather History Date:

Wednesday, May 14, 2014

  Actual Average Record
Temperature  
Mean Temperature 50 °F -  
Max Temperature 62 °F 54 °F 78 °F (2016)
Min Temperature 37 °F 32 °F 25 °F (1965)
Degree Days  
Heating Degree Days 16    
Moisture  
Dew Point 18 °F    
Average Humidity 29    
Maximum Humidity 53    
Minimum Humidity 8    
Precipitation  
Precipitation 0.00 in - - ()
Sea Level Pressure  
Sea Level Pressure 30.38 in    
Wind  
Wind Speed 12 mph (NNW)    
Max Wind Speed 18 mph    
Max Gust Speed 28 mph    
Visibility 10 miles    
Events      
Averages and records for this station are not official NWS values.
T = Trace of Precipitation, MM = Missing Value Source: NWS Daily Summary

Daily Weather History Graph

Daily Weather History Graph

Search for Another Location

Airport or City:

Trip Planner

Search our weather history database for the weather conditions in past years. The results will help you decide how hot, cold, wet, or windy it might be!

Date:

Astronomy

May. 14, 2014 Rise Set
Actual Time 4:49 AM AKDT 10:29 PM AKDT
Civil Twilight 3:33 AM AKDT 11:46 PM AKDT
Nautical Twilight Sun does not set Sun does not set
Astronomical Twilight Sun does not set Sun does not set
Moon 10:35 PM AKDT (5/14) 5:13 AM AKDT (5/14)
Length of Visible Light 20h 12m
Length of Day
17h 40m
Full, 100% of the Moon is Illuminated
May 14
Full
May 21
Last Quarter
May 28
New
Jun 5
First Quarter
Jun 12
Full

Hourly Weather History & Observations

Time (AKDT) Temp. Windchill Dew Point Humidity Pressure Visibility Wind Dir Wind Speed Gust Speed Precip Events Conditions
12:53 AM 42.1 °F 36.6 °F 25.0 °F 51% 30.28 in 10.0 mi NW 9.2 mph - N/A   Clear
1:53 AM 39.9 °F 33.9 °F 24.1 °F 53% 30.29 in 10.0 mi NW 9.2 mph - N/A   Clear
2:53 AM 39.9 °F 32.9 °F 23.0 °F 51% 30.30 in 10.0 mi NNW 11.5 mph - N/A   Clear
3:53 AM 39.9 °F 32.9 °F 23.0 °F 51% 30.31 in 10.0 mi NNW 11.5 mph 20.7 mph N/A   Mostly Cloudy
4:53 AM 39.9 °F 32.5 °F 24.1 °F 53% 30.33 in 10.0 mi NNW 12.7 mph 20.7 mph N/A   Partly Cloudy
5:53 AM 39.9 °F 31.4 °F 23.0 °F 51% 30.35 in 10.0 mi NNW 16.1 mph 24.2 mph N/A   Clear
6:53 AM 43.0 °F 35.1 °F 19.9 °F 40% 30.38 in 10.0 mi NNW 17.3 mph 21.9 mph N/A   Clear
7:53 AM 45.0 °F 37.4 °F 19.9 °F 37% 30.40 in 10.0 mi North 18.4 mph 24.2 mph N/A   Clear
8:53 AM 48.0 °F - 19.0 °F 32% 30.40 in 10.0 mi North 17.3 mph 24.2 mph N/A   Clear
9:53 AM 50.0 °F - 19.0 °F 29% 30.41 in 10.0 mi North 13.8 mph 25.3 mph N/A   Clear
10:53 AM 52.0 °F - 18.0 °F 26% 30.41 in 10.0 mi North 16.1 mph 24.2 mph N/A   Clear
11:53 AM 54.0 °F - 16.0 °F 22% 30.42 in 10.0 mi NNW 16.1 mph 26.5 mph N/A   Clear
1:53 PM 57.9 °F - 10.0 °F 15% 30.41 in 10.0 mi North 18.4 mph 27.6 mph N/A   Clear
2:53 PM 59.0 °F - 10.9 °F 15% 30.40 in 10.0 mi North 17.3 mph 26.5 mph N/A   Clear
3:53 PM 60.1 °F - 15.1 °F 17% 30.40 in 10.0 mi North 16.1 mph 25.3 mph N/A   Clear
4:53 PM 61.0 °F - 14.0 °F 16% 30.39 in 10.0 mi North 11.5 mph 23.0 mph N/A   Clear
5:53 PM 61.0 °F - 12.9 °F 15% 30.38 in 10.0 mi North 11.5 mph - N/A   Clear
6:53 PM 62.1 °F - 15.1 °F 16% 30.38 in 10.0 mi North 11.5 mph - N/A   Clear
7:53 PM 60.1 °F - 14.0 °F 16% 30.38 in 10.0 mi NNE 9.2 mph - N/A   Clear
8:53 PM 57.9 °F - 18.0 °F 21% 30.38 in 10.0 mi North 6.9 mph - N/A   Clear
9:53 PM 52.0 °F - 17.1 °F 25% 30.40 in 10.0 mi North 6.9 mph - N/A   Clear
10:53 PM 48.9 °F - 19.0 °F 31% 30.42 in 10.0 mi NW 8.1 mph - N/A   Clear
11:53 PM 44.1 °F 39.5 °F 17.1 °F 34% 30.43 in 10.0 mi NW 8.1 mph - N/A   Clear